Regional Weather Roundup
Issued by NWS Wakefield, VA

Home | Current Version | Previous Version | Graphics & Text | Print | Product List | Glossary On
Versions: 1 2 3 4 5 6 7 8 9 10 11 12 13 14 15 16 17 18 19 20 21 22 23 24 25 26 27 28 29 30 31 32 33 34 35 36 37 38 39 40 41 42 43 44 45 46 47 48 49 50
000
ASUS41 KAKQ 261715
RWRAKQ

REGIONAL WEATHER ROUNDUP
NATIONAL WEATHER SERVICE WAKEFIELD VA
100 PM EDT MON SEP 26 2016

Note: "fair" indicates few or no clouds below 12,000 feet with no
significant weather and/or obstructions to visibility. * = Denotes
station may not report precipitation (e.g., rain,snow,etc.),
thunder or fog.

VAZ042-051-052>054-056-261800-
NORTHERN VIRGINIA

CITY           SKY/WX    TMP DP  RH WIND       PRES   REMARKS
WASH NATIONAL  CLOUDY    69  60  73 S14G22    30.12F
DULLES         CLOUDY    67  57  70 S12G21    30.10F
FORT BELVOIR   CLOUDY    68  58  72 SE7       30.11F
QUANTICO       CLOUDY    69  60  73 S16       30.12F
FREDERICKSBRG* CLOUDY    69  61  76 SE7       30.11F
STAFFORD*      CLOUDY    67  60  77 S7        30.15F
WARRENTON      CLOUDY    68  56  65 S8G16     30.11S
CULPEPER*      CLOUDY    68  62  79 S10       30.11F
MANASSAS*      CLOUDY    68  61  77 S8G16     30.11F
LEESBURG*      CLOUDY    68  61  77 S14G20    30.10F
WINCHESTER     CLOUDY    72  61  68 SE13      30.05F
FRONT ROYAL*   CLOUDY    72  63  73 S5        30.05F
LURAY*         PTSUNNY   73  63  68 SW13      30.06F
$$

VAZ048-049-060>072-079>083-261800-
CENTRAL AND SOUTH CENTRAL VIRGINIA

CITY           SKY/WX    TMP DP  RH WIND       PRES   REMARKS
RICHMOND       CLOUDY    69  57  65 SE9       30.12F
CHESTERFIELD*  CLOUDY    72  48  43 S9        30.14F
PETERSBURG*    CLOUDY    72  60  67 SE3       30.13F
HANOVER        CLOUDY    70  57  63 SE7       30.14F
TAPPAHANNOCK*  CLOUDY    71  58  64 SE7       30.13F
QUINTON*       CLOUDY    70  59  67 S3        30.13F
CHARLOTTSVILLE CLOUDY    69  61  75 S9        30.10F
GORDONSVILLE*  NOT AVBL
ORANGE*          N/A     68  63  83 S5        30.12F
LOUISA*        CLOUDY    70  64  83 S5        30.11F
BUMPASS*       CLOUDY    67  61  83 CALM      30.12F
FARMVILLE*     CLOUDY    71  62  75 SE6       30.11
CREWE*         CLOUDY    69  62  77 S5        30.13S
FORT PICKETT*  CLOUDY    70  60  69 S7        30.13F
CHASE CITY*    CLOUDY    70  60  70 SE3       30.12F
CLARKSVILLE*   CLOUDY    70  63  78 CALM      30.12F
SOUTH HILL*    CLOUDY    70  62  74 S6        30.18F
LAWRENCEVILLE* CLOUDY    72  61  68 S5        30.13F
EMPORIA*       PTSUNNY   72  59  64 S6        30.14F
$$

VAZ088>098-261800-
SOUTHEAST VIRGINIA

CITY           SKY/WX    TMP DP  RH WIND       PRES   REMARKS
NORFOLK        CLOUDY    75  55  49 SE8       30.13F
VIRGINIA BEACH PTSUNNY   74  53  48 SE9       30.12F
NORFOLK NAVAL  PTSUNNY   76  54  46 S7        30.14F
WEST POINT*    CLOUDY    72  55  56 SE8       30.14F
SALUDA*        CLOUDY    72  58  60 SE3       30.13F
NEWPORT NEWS   CLOUDY    74  55  51 SE8       30.13F
LANGLEY AFB    PTSUNNY   76  56  49 SE8       30.13F
FORT EUSTIS    CLOUDY    75  58  55 S6        30.11F
WILLIAMSBURG*  MOSUNNY   73  59  60 SE8       30.14F
HR EXEC AP*    CLOUDY    75  57  53 S8        30.15F
FRANKLIN*      CLOUDY    72  59  63 E6        30.14F
US460-WAKEFLD  PTSUNNY   73  55  53 VRB5      30.13F
$$

VAZ020-022-025-037-045-261800-
WEST CENTRAL AND SOUTHWEST VIRGINIA

CITY           SKY/WX    TMP DP  RH WIND       PRES   REMARKS
STAUNTON*      CLOUDY    68  62  79 S9        30.11F
WAYNESBORO*    CLOUDY    69  61  77 S3        30.10F
HOT SPRINGS VA RAIN      51  51 100 S7        30.15F VSB<1/4
LYNCHBURG      CLOUDY    68  60  75 S8        30.13F
DANVILLE       CLOUDY    70  61  73 VRB3      30.12F
SOUTH BOSTON*  CLOUDY    70  59  69 S3        30.12F
MARTINSVILLE   CLOUDY    66  65  94 CALM      30.14F FOG
ROANOKE        CLOUDY    68  65  90 SE10      30.12F
BLACKSBURG     MOSUNNY   75  68  79 SE5       30.14F
DUBLIN*        CLOUDY    81  65  58 SW8G18    30.11F
MARION*        PTSUNNY   79  65  61 W16G26    30.14F
HILLSVILLE*    CLOUDY    74  68  80 S7        30.12F
RICHLANDS*     PTSUNNY   78  66  67 SW7G22    30.12F
WISE*          PTSUNNY   75  55  50 SW18G24   30.15S
ABINGDON*      CLOUDY    78  66  65 W8        30.11F
$$

MDZ021>025-VAZ099-100-261800-
SOUTHERN MARYLAND AND THE DELMARVA PENINSULA

CITY           SKY/WX    TMP DP  RH WIND       PRES   REMARKS
PATUXENT RIVER CLOUDY    70  53  54 S6        30.13F
BAY BRIDGE APT CLOUDY    70  55  60 MISG      30.13F
LEONARDTOWN    CLOUDY    68  54  60 SE6       30.14F
DOVER          MOSUNNY   73  59  61 E15       30.11F
GEORGETOWN     SUNNY     74  49  41 S13       30.14F
EASTON         CLOUDY    72  52  49 S8        30.16F
CAMBRIDGE      PTSUNNY   72  54  53 S8        30.12F
SALISBURY      SUNNY     74  51  44 SE8       30.14F
OCEAN CITY     SUNNY     73  52  47 SE8       30.14F
WALLOPS ISLAND MOSUNNY   74  55  51 SE12      30.15F
ACCOMACK*      CLOUDY    74  51  43 SE9       30.13F
$$

NCZ012>017-030>032-261800-
NORTH CENTRAL AND EASTERN NORTH CAROLINA

CITY           SKY/WX    TMP DP  RH WIND       PRES   REMARKS
ROANOKE RAPIDS CLOUDY    73  61  64 S7        30.13F
RALEIGH        PTSUNNY   71  64  78 S5        30.13F
ELIZABETH CITY CLOUDY    75  59  57 E8        30.13F
AHOSKIE*       SUNNY     73  61  65 S6        30.14F
EDENTON*       NOT AVBL
CURRITUCK*     MOSUNNY   76  60  56 E3        30.14F
KILL DEVIL HLS SUNNY     80  67  64 E8        30.12F
MANTEO         SUNNY     75  63  65 E10G16    30.13F
CAPE HATTERAS  SUNNY     80  65  59 E7        30.12F
TARBORO*       CLOUDY    73  62  68 CALM      30.15F
GOLDSBORO      MOSUNNY   77  64  63 E5        30.10F
WASHINGTON     PTSUNNY   73  61  65 E5        30.13F
GREENVILLE     CLOUDY    73  61  64 CALM      30.15F
NEW BERN       PTSUNNY   79  62  56 E3        30.13F
WILMINGTON     SUNNY     80  67  64 E8        30.11F
$$

VAZ048-261800-
ELSEWHERE

CITY           SKY/WX    TMP DP  RH WIND       PRES   REMARKS
HARRISBURG PA  CLOUDY    66  60  81 S10       30.09F
BALTIMORE      CLOUDY    67  59  75 SE9       30.12F
ANNAPOLIS      CLOUDY    69  57  65 S13       30.12F
ANDREWS AFB    CLOUDY    66  60  80 SE8       30.11F
PHILADELPHIA   CLOUDY    71  50  47 S12G18    30.14F
HENDERSON NC   CLOUDY    66  58  75 S6        30.13F
GREENSBORO     CLOUDY    72  67  84 S7        30.11F
ROCKY MOUNT    CLOUDY    73  61  65 E6        30.13F
$$

VAZ100-261800-
MARINE

STATION/POSITION TIME  TEMP    WIND        PRES    WAVE   SWELL
                       AIR SEA DIR/SP/G            HT/PER HT/PER
                 (UTC) (F)     (DEG/KT/KT) (MB)    (FT/S) (FT/S)
BRANDYWINE LGT   1600   68     160/ 17/ 20   N/A
CAPE MAY NJ      1600   69 72  140/  9/ 16 1020.9F
LEWES DE         1600   70 72  150/ 13/ 17 1020.9F
OCEAN-CITY-INLET 1600   71 72  160/  9/ 12 1021.8F
WACHAPREAGUE VA  1600   72 73  120/  6/  9 1021.0F
THOMAS POINT MD  1700   69 75  160/ 18/ 20 1021.0F
GOOSES REEF MD   1600   70 75  190/ 16/ 19 1021.2F   2/ 3
COVE POINT MD    1600   69     190/ 14/ 18 1021.3F
SOLOMONS ISLAND  1600   70 75  160/ 11/ 15   N/A
BISHOPS HEAD MD  1600   70 71  140/ 10/ 13 1021.2S
PINEY POINT MD   1600          180/ 11/ 14   N/A
POTOMAC MD       1600   70 75  170/ 12/ 14 1020.0F   2/ 3
CAMBRIDGE MD     1600   71 74  130/  5/ 12 1020.0F
LEWISETTA VA     1600   70 74  160/ 10/ 13 1020.4F
RAPPAHANNOCK LGT 1600          120/  9/ 11 1021.3S
STINGRAY PT      1600   72 75   80/ 10/ 14 1021.1F   1/ 3
YORK RVR RNG VA  1600   71     150/ 10/ 12 1020.3F
YORKTOWN VA      1600   72 77  120/  9/ 12 1020.2F
JAMESTOWN VA     1600   71 78  170/  8/ 10   N/A     0
DOMINION TERM VA 1600   72     120/  6/  8 1020.6F
KIPTOPEKE VA     1600      76  120/  8/ 13   N/A
CHES BAY BRIDGE  1600   72 76  120/  7/ 10 1020.6F
CAPE HENRY VA    1600   71     120/ 10/ 12   N/A
WILLOUBY STN VA  1600   72     130/  6/  9   N/A
CAPE HENRY BUOY  1612      76                N/A     3/ 7
1ST LANDING BUOY 1600   72 75  130/ 10/ 12 1020.6F   2/ 4
CAPE CHARLES BUO 1626      76                N/A     3/ 9
OFFSHORE WE BUOY 1621      76                N/A     3/ 9
64NM E OF VA BCH 1650   73 75  110/  8/ 10 1020.4F   3/ 8   3/ 8
DUCK PIER NC     1600   73 76   90/ 10/ 12 1020.3F
44056 DUCK FRF   1611      77                N/A     3/ 8
OREGON INLET NC  1600   74 75   30/  7/ 11 1020.6S
HATTERAS NC      1600   74 76   20/ 10/ 13 1020.2S
DIAMOND SHLS NC  1650   78 78  120/  6/  8 1019.8F   3/ 8   3/ 8
CAPE LOOKOUT NC  1700   76      40/ 10/ 12 1019.4F
$$



USA.gov is the U.S. government's official web portal to all federal, state and local government web resources and services.